owner,sensor,date,latitude,longitude,vertical_datum,direction_of_sea_water_velocity,sea_water_speed,upward_sea_water_velocity,qcFlag 
TABS,ioos:station:wmo:42044:1,2003-10-01T00:00:00Z,26.1914,-97.0507,2.0,157.0246892,32.99755749,-99999.0,'11111222,11111222,99999999' 
TABS,ioos:station:wmo:42044:1,2003-10-01T00:30:00Z,26.1914,-97.0507,2.0,155.8189981,42.89361025,-99999.0,'11111222,11111222,99999999' 
TABS,ioos:station:wmo:42044:1,2003-10-01T01:00:00Z,26.1914,-97.0507,2.0,170.87364,47.91655351,-99999.0,'11111222,11111222,99999999' 
TABS,ioos:station:wmo:42044:1,2003-10-01T01:30:00Z,26.1914,-97.0507,2.0,160.2866412,69.46090267,-99999.0,'11111222,11111222,99999999' 
TABS,ioos:station:wmo:42044:1,2003-10-01T02:00:00Z,26.1914,-97.0507,2.0,163.1411376,56.79069818,-99999.0,'11111222,11111222,99999999' 
TABS,ioos:station:wmo:42044:1,2003-10-01T02:30:00Z,26.1914,-97.0507,2.0,166.031979,52.82187142,-99999.0,'11111222,11111222,99999999' 
TABS,ioos:station:wmo:42044:1,2003-10-01T03:00:00Z,26.1914,-97.0507,2.0,170.2550578,56.36323358,-99999.0,'11111222,11111222,99999999' 
TABS,ioos:station:wmo:42044:1,2003-10-01T03:30:00Z,26.1914,-97.0507,2.0,183.3457354,54.14229493,-99999.0,'11111222,11111222,99999999' 
TABS,ioos:station:wmo:42044:1,2003-10-01T04:00:00Z,26.1914,-97.0507,2.0,182.8731827,57.25198075,-99999.0,'11111222,11111222,99999999' 
TABS,ioos:station:wmo:42044:1,2003-10-01T04:30:00Z,26.1914,-97.0507,2.0,177.9867535,72.02444932,-99999.0,'11111222,11111222,99999999' 
TABS,ioos:station:wmo:42044:1,2003-10-01T05:00:00Z,26.1914,-97.0507,2.0,173.3496048,67.35317364,-99999.0,'11111222,11111222,99999999' 
TABS,ioos:station:wmo:42044:1,2003-10-01T05:30:00Z,26.1914,-97.0507,2.0,174.3539595,65.15607186,-99999.0,'11111222,11111222,99999999' 
TABS,ioos:station:wmo:42044:1,2003-10-01T06:00:00Z,26.1914,-97.0507,2.0,167.757487,59.65662159,-99999.0,'11111222,11111222,99999999' 
TABS,ioos:station:wmo:42044:1,2003-10-01T06:30:00Z,26.1914,-97.0507,2.0,187.2194024,87.1307988,-99999.0,'11111222,11111222,99999999' 
TABS,ioos:station:wmo:42044:1,2003-10-01T07:00:00Z,26.1914,-97.0507,2.0,187.654344,82.13186714,-99999.0,'11111222,11111222,99999999' 
TABS,ioos:station:wmo:42044:1,2003-10-01T07:30:00Z,26.1914,-97.0507,2.0,198.7413139,85.09178574,-99999.0,'11111222,11111222,99999999' 
TABS,ioos:station:wmo:42044:1,2003-10-01T08:00:00Z,26.1914,-97.0507,2.0,199.8831328,83.94418443,-99999.0,'11111222,11111222,99999999' 
TABS,ioos:station:wmo:42044:1,2003-10-01T08:30:00Z,26.1914,-97.0507,2.0,194.486127,79.03267236,-99999.0,'11111222,11111222,99999999' 
TABS,ioos:station:wmo:42044:1,2003-10-01T09:00:00Z,26.1914,-97.0507,2.0,188.3652014,73.34031974,-99999.0,'11111222,11111222,99999999' 
TABS,ioos:station:wmo:42044:1,2003-10-01T09:30:00Z,26.1914,-97.0507,2.0,182.5990273,70.56259703,-99999.0,'11111222,11111222,99999999' 
TABS,ioos:station:wmo:42044:1,2003-10-01T10:00:00Z,26.1914,-97.0507,2.0,173.9307154,68.38327939,-99999.0,'11111222,11111222,99999999' 
TABS,ioos:station:wmo:42044:1,2003-10-01T10:30:00Z,26.1914,-97.0507,2.0,172.4786663,67.99498584,-99999.0,'11111222,11111222,99999999' 
TABS,ioos:station:wmo:42044:1,2003-10-01T11:00:00Z,26.1914,-97.0507,2.0,170.8798779,64.10030967,-99999.0,'11111222,11111222,99999999' 
TABS,ioos:station:wmo:42044:1,2003-10-01T11:30:00Z,26.1914,-97.0507,2.0,172.5494971,71.87680641,-99999.0,'11111222,11111222,99999999' 
TABS,ioos:station:wmo:42044:1,2003-10-01T12:00:00Z,26.1914,-97.0507,2.0,172.5349605,56.88208945,-99999.0,'11111222,11111222,99999999' 
TABS,ioos:station:wmo:42044:1,2003-10-01T12:30:00Z,26.1914,-97.0507,2.0,172.3002413,43.66366224,-99999.0,'11111222,11111222,99999999' 
TABS,ioos:station:wmo:42044:1,2003-10-01T13:00:00Z,26.1914,-97.0507,2.0,182.4402488,54.24920368,-99999.0,'11111222,11111222,99999999' 
TABS,ioos:station:wmo:42044:1,2003-10-01T13:30:00Z,26.1914,-97.0507,2.0,173.1152378,51.72293978,-99999.0,'11111222,11111222,99999999' 
TABS,ioos:station:wmo:42044:1,2003-10-01T14:00:00Z,26.1914,-97.0507,2.0,169.6132468,53.30344267,-99999.0,'11111222,11111222,99999999' 
TABS,ioos:station:wmo:42044:1,2003-10-01T14:30:00Z,26.1914,-97.0507,2.0,173.0801601,49.13791611,-99999.0,'11111222,11111222,99999999' 
TABS,ioos:station:wmo:42044:1,2003-10-01T15:00:00Z,26.1914,-97.0507,2.0,179.8371249,45.79018454,-99999.0,'11111222,11111222,99999999' 
TABS,ioos:station:wmo:42044:1,2003-10-01T15:30:00Z,26.1914,-97.0507,2.0,180.2355728,51.0304321,-99999.0,'11111222,11111222,99999999' 
TABS,ioos:station:wmo:42044:1,2003-10-01T16:00:00Z,26.1914,-97.0507,2.0,178.2388794,53.69535734,-99999.0,'11111222,11111222,99999999' 
TABS,ioos:station:wmo:42044:1,2003-10-01T16:30:00Z,26.1914,-97.0507,2.0,175.1143713,42.97613291,-99999.0,'11111222,11111222,99999999' 
TABS,ioos:station:wmo:42044:1,2003-10-01T17:00:00Z,26.1914,-97.0507,2.0,175.9612634,40.75118894,-99999.0,'11111222,11111222,99999999' 
TABS,ioos:station:wmo:42044:1,2003-10-01T17:30:00Z,26.1914,-97.0507,2.0,177.7240312,49.3589303,-99999.0,'11111222,11111222,99999999' 
TABS,ioos:station:wmo:42044:1,2003-10-01T18:00:00Z,26.1914,-97.0507,2.0,173.7735606,49.97478164,-99999.0,'11111222,11111222,99999999' 
TABS,ioos:station:wmo:42044:1,2003-10-01T18:30:00Z,26.1914,-97.0507,2.0,171.8359466,57.60375682,-99999.0,'11111222,11111222,99999999' 
TABS,ioos:station:wmo:42044:1,2003-10-01T19:00:00Z,26.1914,-97.0507,2.0,176.8379462,56.56611,-99999.0,'11111222,11111222,99999999' 
TABS,ioos:station:wmo:42044:1,2003-10-01T19:30:00Z,26.1914,-97.0507,2.0,171.9211239,64.61120104,-99999.0,'11111222,11111222,99999999' 
TABS,ioos:station:wmo:42044:1,2003-10-01T20:00:00Z,26.1914,-97.0507,2.0,170.0205656,64.68870226,-99999.0,'11111222,11111222,99999999' 
TABS,ioos:station:wmo:42044:1,2003-10-01T20:30:00Z,26.1914,-97.0507,2.0,174.8030957,68.34090795,-99999.0,'11111222,11111222,99999999' 
TABS,ioos:station:wmo:42044:1,2003-10-01T21:00:00Z,26.1914,-97.0507,2.0,172.2016106,62.49797437,-99999.0,'11111222,11111222,99999999' 
TABS,ioos:station:wmo:42044:1,2003-10-01T21:30:00Z,26.1914,-97.0507,2.0,164.6375091,69.37891899,-99999.0,'11111222,11111222,99999999' 
TABS,ioos:station:wmo:42044:1,2003-10-01T22:00:00Z,26.1914,-97.0507,2.0,166.6226748,60.51179141,-99999.0,'11111222,11111222,99999999' 
TABS,ioos:station:wmo:42044:1,2003-10-01T22:30:00Z,26.1914,-97.0507,2.0,165.5557876,86.55588079,-99999.0,'11111222,11111222,99999999' 
TABS,ioos:station:wmo:42044:1,2003-10-01T23:00:00Z,26.1914,-97.0507,2.0,167.187307,104.7071077,-99999.0,'11111222,11111222,99999999' 
TABS,ioos:station:wmo:42044:1,2003-10-01T23:30:00Z,26.1914,-97.0507,2.0,163.7362984,103.4080002,-99999.0,'11111222,11111222,99999999' 
TABS,ioos:station:wmo:42044:1,2003-10-02T00:00:00Z,26.1914,-97.0507,2.0,164.2477284,107.0814106,-99999.0,'11111222,11111222,99999999' 
TABS,ioos:station:wmo:42044:1,2003-10-02T00:30:00Z,26.1914,-97.0507,2.0,171.7840894,117.3544009,-99999.0,'11111222,11111222,99999999' 
 
DISCLAIMER: The Gulf of Mexico Coastal and Ocean Observing (GCOOS) Data Portal aggregates data from the regional data providers for the convenience of all data users. Data published on this website should not be used for navigation or certain other uses as we cannot guarantee data accuracy or availability. The data and delivery services are provided 'as is' without warranty of any kind. Data Source: Gulf of Mexico Coastal Ocean Observing System Data Portal (http://data.gcoos.org/) 
